Regional Weather Roundup
Issued by NWS

Home | Current Version | Previous Version | Graphics & Text | Print | Product List | Glossary On
Versions: 1 2 3 4 5 6 7 8 9 10 11 12 13 14 15 16 17 18 19 20 21 22 23 24 25 26 27 28 29 30 31 32 33 34 35 36 37 38 39 40 41 42 43 44 45 46 47 48 49 50
000
ASUS43 KLMK 281710
RWRKY
KENTUCKY REGIONAL WEATHER ROUNDUP
NATIONAL WEATHER SERVICE LOUISVILLE KY
100 PM EDT TUE APR 28 2015

NOTE "FAIR" INDICATES FEW OR NO CLOUDS BELOW 12,000 FEET
WITH NO SIGNIFICANT WEATHER AND/OR OBSTRUCTIONS TO VISIBILITY.

KYZ001>023-026-027-061>063-070>075-281800-
WESTERN AND SOUTH CENTRAL KENTUCKY

CITY           SKY/WX    TMP DP  RH WIND       PRES   REMARKS
PADUCAH        PTSUNNY   61  40  45 NE15G21   30.04F
HENDERSON      SUNNY     57  37  47 NE10      30.06F
OWENSBORO      SUNNY     58  39  49 NE10      30.06F
HOPKINSVILLE   PTSUNNY   60  42  50 N12       30.02F
BOWLING GREEN  SUNNY     60  39  45 NE9       30.03F
GLASGOW        SUNNY     59  39  48 NE8       30.03F
$$

KYZ024-025-028>034-038-045-046-053-281800-
NORTH CENTRAL KENTUCKY

CITY           SKY/WX    TMP DP  RH WIND       PRES   REMARKS
LOUISVILLE/SDF MOSUNNY   60  37  42 NE10G20   30.06F
LOUISVILLE/LOU SUNNY     58  37  45 N6        30.07F
FORT KNOX      SUNNY     58  36  44 E10       30.04F
$$

KYZ035>037-039>044-047>052-055>060-089>105-281800-
NORTHEAST KENTUCKY

CITY           SKY/WX    TMP DP  RH WIND       PRES   REMARKS
LEXINGTON      SUNNY     56  39  53 NE12      30.06F
COVINGTON      MOSUNNY   57  37  47 E10G18    30.08F
FRANKFORT      SUNNY     57  37  47 E13       30.05F
$$

KYZ054-064>069-076>088-106>120-281800-
SOUTHEAST KENTUCKY

CITY           SKY/WX    TMP DP  RH WIND       PRES   REMARKS
JACKSON        SUNNY     56  34  43 CALM      30.03F
LONDON         SUNNY     60  35  39 MISG      30.01F
SOMERSET       SUNNY     57  37  47 E7        30.03F
MIDDLESBORO    SUNNY     62  40  45 CALM      29.99F
MONTICELLO     SUNNY     61  40  45 NE9G16    30.04F
$$




USA.gov is the U.S. government's official web portal to all federal, state and local government web resources and services.